Theta_e
304 304 304 303 301 303 304 304 304 303 303 303 303 302 304 304 304 303 303 301 298 297 297 299 299 303 313 325 327 327 326 326 324 322 318 313 312 309 309 307 305 304 303 302
304 305 304 304 304 304 304 304 303 302 304 304 304 304 304 303 302 300 300 301 300 300 299 299 298 298 306 323 324 324 325 324 322 321 317 310 308 308 307 306 304 303 302 301
304 305 304 305 304 304 304 304 303 303 302 301 301 302 303 302 302 302 301 301 300 300 300 299 298 297 298 301 315 320 322 322 319 317 312 309 308 307 306 304 303 302 301 300
301 301 303 303 304 303 305 303 303 303 301 301 301 302 302 303 303 302 301 300 300 300 300 300 299 299 297 297 301 316 317 317 317 315 312 310 308 306 304 304 303 302 301 300
302 303 303 304 303 303 304 303 303 303 302 301 301 299 301 303 303 301 299 298 298 298 299 299 298 299 299 298 298 309 315 313 311 314 313 309 308 306 304 304 303 301 300 299
300 300 300 300 301 301 302 303 300 301 301 293 301 301 302 302 303 299 298 296 296 296 296 297 297 297 297 297 298 300 309 311 310 310 309 309 307 305 303 303 302 301 300 299
299 299 300 300 301 301 302 299 289 293 293 297 301 302 302 300 299 298 298 295 294 294 294 295 296 296 296 296 296 297 299 306 308 307 307 308 307 306 304 303 302 301 299 298
298 296 300 300 300 302 302 300 294 291 299 302 303 305 302 296 295 294 297 295 293 293 293 294 295 295 294 294 295 295 297 299 305 306 306 306 306 305 304 303 303 302 300 299
298 301 299 299 299 300 300 301 301 292 288 296 302 304 299 296 292 291 295 294 293 292 293 292 294 293 293 293 293 294 294 297 300 304 305 305 305 304 304 304 302 302 301 299
298 298 298 299 299 299 301 300 300 293 297 299 300 305 306 296 291 290 292 293 292 292 292 292 293 292 291 291 292 293 293 293 296 299 303 304 305 305 304 303 302 302 301 299
293 296 297 297 299 297 297 296 296 298 297 295 295 300 298 293 290 289 293 293 291 291 291 291 292 291 290 290 291 291 292 293 293 295 299 301 302 304 304 303 303 302 301 299
290 293 293 295 293 294 296 299 296 294 295 295 295 298 294 290 289 289 292 293 292 291 291 291 292 290 289 289 289 290 291 291 293 293 295 300 301 302 302 302 302 302 301 299
290 288 285 288 291 291 291 292 295 290 288 291 292 298 292 290 288 288 290 293 293 292 291 290 290 289 288 288 288 289 289 290 291 292 292 296 299 300 301 301 302 301 300 299
290 289 286 287 291 289 289 289 288 285 282 283 291 287 291 293 287 288 288 291 291 291 289 290 288 288 288 288 288 288 289 289 290 291 292 292 295 298 300 301 301 300 300 298
288 282 285 286 287 287 288 288 288 287 282 284 288 285 286 282 283 286 286 287 288 289 289 289 288 287 287 287 288 289 289 289 289 290 290 291 291 295 297 299 299 299 298 298
286 283 287 283 287 288 288 287 287 287 287 285 286 286 287 287 287 286 284 284 285 284 283 285 285 286 287 288 288 288 289 288 289 289 289 290 290 291 296 296 297 298 297 296
283 283 281 283 287 286 283 286 287 287 283 284 285 286 286 285 286 282 283 283 282 282 283 282 282 284 286 288 288 288 288 288 288 288 288 288 288 289 291 295 295 295 295 295
284 286 285 286 281 286 286 285 285 286 287 286 286 286 287 282 286 285 281 280 282 281 283 280 284 286 287 288 288 288 288 287 286 286 286 287 287 289 290 292 293 294 294 293
287 287 289 288 286 286 286 285 285 284 285 286 286 287 286 286 285 285 285 281 282 283 284 285 288 287 288 288 288 288 288 287 286 285 284 285 286 288 289 290 291 292 292 291
286 287 288 288 288 287 286 285 285 285 286 286 285 285 286 285 285 286 283 278 281 283 286 287 287 287 287 288 287 287 287 286 285 285 284 284 284 286 289 290 290 291 291 291
275 279 287 287 288 287 287 287 287 286 287 287 286 286 286 285 285 284 278 278 282 285 286 286 286 287 287 287 287 287 286 284 285 284 282 281 282 283 288 290 290 290 290 289
281 279 276 273 280 284 285 286 285 287 288 288 288 286 285 284 284 283 282 281 280 281 285 286 285 286 287 287 287 287 285 285 284 282 281 280 280 283 287 290 290 289 289 288
281 282 280 280 283 286 287 287 288 286 286 286 287 286 285 285 285 284 284 284 283 284 285 285 285 286 287 287 287 285 285 284 281 280 279 279 280 283 286 289 289 288 288 287
281 278 282 284 286 286 286 286 287 288 289 289 288 288 287 285 285 286 285 284 285 285 285 286 285 285 285 286 286 285 284 282 279 278 278 278 280 282 287 289 289 288 287 288
283 283 283 285 286 286 286 285 285 286 286 286 285 284 285 285 286 286 286 286 286 285 285 286 285 285 285 286 285 284 282 280 278 277 276 277 279 283 287 289 289 288 288 288
285 285 286 285 285 285 285 281 280 282 281 281 279 279 280 282 283 284 285 286 285 284 285 284 285 284 285 284 283 282 281 278 276 275 275 277 279 282 287 288 288 289 289 289
Wind_Speed
2 3 5 8 7 4 2 4 6 5 7 3 5 9 16 11 9 12 13 8 9 9 9 19 23 20 9 26 31 36 35 34 32 32 31 29 32 31 31 28 26 23 22 21
3 6 8 6 5 5 5 6 6 7 2 2 4 12 10 9 12 12 13 13 12 14 16 19 23 28 17 12 27 32 35 35 35 35 34 23 30 31 29 26 25 24 24 21
5 4 5 6 4 5 4 5 4 6 5 3 4 6 4 6 15 14 13 12 13 15 16 17 23 25 28 23 7 21 33 34 33 33 33 24 25 25 26 27 27 26 23 21
6 7 5 6 5 5 2 4 4 4 5 1 4 3 4 6 11 12 11 13 13 14 14 16 22 27 28 29 20 16 23 30 33 34 34 36 30 19 21 30 27 25 24 23
5 3 2 3 4 5 6 2 1 2 2 4 3 4 4 5 7 10 12 14 14 15 15 16 20 24 25 31 31 6 22 23 27 35 37 36 28 27 24 27 28 27 24 22
7 3 2 5 3 2 2 2 5 4 3 2 4 4 4 4 10 6 9 12 13 14 15 16 22 25 29 31 37 28 6 19 26 31 34 35 30 30 25 28 30 29 26 24
4 3 2 3 2 2 3 5 3 4 3 5 1 3 2 10 8 7 7 8 9 11 13 15 16 25 29 32 31 32 26 11 14 26 30 34 34 35 34 32 32 32 30 29
2 5 4 2 4 5 5 6 5 6 3 3 3 4 5 8 7 6 7 6 9 12 11 12 16 21 25 30 31 31 30 24 13 17 25 30 33 35 34 34 33 36 37 33
4 5 4 2 1 5 3 3 2 5 1 3 3 6 2 5 6 6 6 8 9 10 11 11 16 20 23 27 30 31 31 25 21 11 22 29 31 33 34 34 34 35 36 35
2 3 2 4 2 1 3 1 2 3 2 5 3 6 4 10 4 3 5 6 6 6 7 8 13 19 22 25 28 32 32 28 23 19 11 25 32 33 33 33 33 34 34 32
1 3 4 2 1 1 4 2 1 2 4 5 2 5 3 14 6 6 5 3 4 5 6 6 12 20 21 23 26 29 32 32 30 23 17 13 25 31 32 32 32 33 33 32
0 2 3 5 2 3 2 1 2 3 6 2 2 6 12 12 7 6 4 0 3 4 6 6 11 15 19 21 24 25 29 31 30 27 21 14 16 25 30 31 31 32 33 32
1 1 2 6 4 4 3 2 2 3 2 4 4 6 8 10 7 5 4 1 5 5 6 6 8 10 15 20 22 25 26 30 29 29 26 19 14 19 25 30 32 32 32 32
2 1 5 5 3 2 5 4 1 4 2 2 9 6 7 11 10 6 4 5 5 6 5 4 5 9 12 18 24 26 28 29 28 29 29 25 19 17 22 28 31 32 32 33
4 4 4 5 5 4 10 16 9 11 7 8 16 8 8 6 9 16 4 6 7 8 6 7 4 7 16 20 21 25 28 28 26 25 29 28 24 19 20 27 29 30 32 33
2 3 2 4 5 7 14 21 14 17 15 14 20 24 16 17 8 5 8 10 10 9 7 7 6 10 13 19 25 24 26 30 25 25 26 30 28 22 20 24 28 29 31 33
5 4 3 6 4 2 10 13 18 15 8 11 14 24 3 10 10 9 10 8 9 9 9 7 7 12 14 15 19 23 25 31 29 26 26 26 28 24 21 24 28 29 31 33
5 5 4 6 3 10 9 4 8 14 16 14 15 19 13 12 15 9 7 8 10 8 10 7 13 17 15 17 21 21 24 28 30 27 26 25 24 23 20 25 29 30 31 33
11 7 6 8 9 13 11 6 4 7 18 13 15 17 18 15 4 10 11 8 12 11 14 16 18 18 17 19 23 20 25 29 28 25 25 24 24 23 21 24 28 30 31 33
7 10 8 9 12 17 16 10 12 16 16 19 15 20 16 11 6 13 9 6 11 19 17 18 18 15 14 20 19 18 24 29 25 24 23 24 27 26 25 25 28 31 32 32
1 1 12 12 14 14 9 11 14 9 15 20 17 18 18 12 10 10 4 6 15 19 18 17 15 16 18 19 18 19 24 25 28 26 24 26 28 27 26 26 28 29 31 29
7 5 4 1 6 17 10 13 11 18 17 17 17 13 10 10 10 8 9 8 8 14 19 19 16 17 19 19 17 18 23 30 26 29 26 26 27 28 24 25 26 28 29 27
3 7 4 8 6 7 11 14 16 4 4 12 11 12 8 10 8 10 10 11 10 16 19 18 16 17 20 22 19 17 28 27 30 29 29 31 31 29 25 25 24 25 28 26
5 5 5 4 9 18 12 11 10 14 14 13 16 18 18 11 12 13 9 9 10 16 18 21 17 16 23 24 22 20 23 26 27 28 30 29 26 26 24 26 26 27 26 25
5 4 6 12 14 17 11 9 7 8 8 8 9 9 13 10 12 11 10 10 11 15 19 16 16 17 24 26 25 23 22 23 25 26 26 26 25 24 23 25 26 27 28 30
9 19 11 15 15 10 12 3 6 6 7 8 9 10 10 11 10 11 9 12 13 14 15 14 17 21 27 26 26 25 23 21 22 23 21 21 22 23 22 21 21 29 28 32
Wind_Direction
243 99 200 208 199 244 211 241 250 254 258 261 288 294 293 300 289 284 293 329 13 23 342 12 11 9 282 214 211 210 205 205 203 201 195 198 197 198 202 204 205 204 202 202
34 242 224 210 212 216 231 249 270 292 276 308 296 287 306 21 43 46 63 51 35 29 21 14 12 19 20 232 211 202 203 202 204 202 195 189 193 197 204 204 205 205 204 203
179 251 94 154 221 242 226 225 242 251 325 296 326 320 27 65 63 59 52 54 43 38 30 23 19 13 18 18 276 213 203 205 201 198 191 186 193 198 206 207 204 203 205 204
229 248 225 236 229 180 264 223 225 281 25 246 50 278 328 94 68 55 39 34 29 25 25 25 18 17 9 6 359 235 218 209 200 198 192 193 187 197 206 205 207 205 206 207
255 208 189 178 212 159 225 154 259 280 327 6 337 97 261 142 75 55 49 37 29 26 24 21 14 10 10 12 15 312 224 212 202 203 204 198 193 200 207 212 207 211 208 208
242 315 226 216 221 220 156 66 39 42 100 16 245 151 275 190 132 89 65 43 31 24 21 22 17 14 12 13 18 25 345 217 211 211 206 206 199 198 195 206 208 209 212 211
313 228 204 170 218 356 112 66 331 352 3 219 81 148 349 75 75 84 79 45 26 18 18 15 13 11 9 10 11 14 22 11 228 217 212 215 211 213 212 212 214 211 213 213
172 314 170 193 198 186 177 158 162 223 195 253 249 222 149 101 90 58 73 55 31 17 11 12 10 9 7 4 6 9 13 11 0 236 223 223 219 219 219 220 220 220 219 218
176 263 328 356 265 129 208 176 183 101 31 67 216 95 117 122 67 47 74 50 29 10 4 2 1 6 5 2 359 2 7 6 3 333 239 231 229 225 224 225 225 225 224 222
171 302 359 298 345 23 172 179 66 357 189 239 253 195 205 160 129 62 65 47 18 354 348 350 357 355 358 360 360 2 5 3 357 356 301 247 236 234 234 229 225 226 227 223
77 145 281 323 47 51 350 338 9 177 164 187 202 244 185 137 136 100 104 45 354 340 332 338 347 350 351 358 357 358 358 359 359 350 344 281 248 239 235 233 231 230 228 221
18 157 235 250 341 19 77 325 124 153 251 258 166 260 145 139 127 88 116 297 294 314 323 325 337 343 348 352 352 351 351 352 354 351 337 320 264 249 236 234 234 231 226 220
202 295 7 338 357 28 45 53 105 108 88 237 156 257 169 150 121 67 20 261 287 301 328 327 322 330 340 349 349 346 345 345 347 347 344 325 299 263 247 241 238 232 224 218
69 156 182 195 140 80 286 251 253 128 147 250 237 303 255 243 320 325 252 222 250 256 273 282 310 323 328 345 353 345 343 343 341 341 339 332 311 287 262 249 241 234 225 218
138 202 188 234 229 243 268 272 264 230 213 207 268 246 257 279 301 307 206 231 217 222 253 262 290 311 331 337 342 344 343 342 337 326 328 330 322 292 274 251 241 234 225 219
193 249 186 280 252 258 269 262 259 253 243 247 260 267 275 267 257 259 277 286 292 292 261 239 244 286 310 330 331 332 337 338 335 324 316 322 321 308 275 256 241 232 225 218
163 149 87 259 203 283 280 256 239 247 222 214 241 253 224 262 256 243 254 258 261 274 262 249 230 261 279 302 320 324 332 336 327 319 319 315 316 309 281 256 238 229 223 219
172 166 171 263 87 247 254 187 207 227 246 242 251 259 259 247 261 267 225 227 257 246 251 257 253 273 289 308 316 327 329 330 327 319 319 321 314 300 283 260 239 230 224 218
214 208 246 243 227 264 273 283 222 190 263 250 246 256 249 261 241 268 245 217 231 234 233 250 270 283 294 303 318 323 324 326 322 318 317 318 313 300 286 249 236 230 224 218
195 218 230 246 256 260 271 268 251 263 264 262 234 249 260 254 256 265 267 235 251 244 243 257 271 283 276 298 311 312 316 318 312 318 312 308 308 295 277 252 234 229 224 221
144 210 225 247 267 273 265 263 270 250 268 254 253 249 253 242 231 237 229 261 237 232 240 260 263 268 277 296 299 302 309 301 314 312 307 304 310 300 280 253 234 225 221 215
187 169 221 308 246 273 258 276 252 266 283 273 266 252 228 226 244 227 234 238 234 242 254 256 255 265 286 291 285 292 295 309 309 310 304 298 300 303 282 248 229 218 213 203
281 186 206 184 220 252 291 271 271 236 251 296 278 271 231 236 238 248 236 233 231 233 250 256 249 264 282 283 276 277 298 305 311 308 305 304 305 303 281 240 219 205 203 198
261 184 223 272 247 249 262 276 269 276 264 258 264 267 268 252 258 257 254 237 237 237 238 253 252 259 276 279 278 285 297 305 308 302 304 303 297 297 277 237 217 206 200 199
198 168 232 256 264 280 258 254 281 284 283 295 298 274 274 268 267 263 265 250 245 236 242 247 251 266 273 279 281 289 296 304 301 297 298 295 293 290 273 233 217 210 210 204
226 245 247 258 266 272 285 71 9 354 350 341 337 326 341 351 334 316 271 248 246 249 256 254 258 266 269 274 279 288 299 299 295 288 290 287 289 289 271 230 222 220 216 215